Weather in Snizhne

Ukraine / Donetsk Region     48°01′10″N   38°45′37″E
temp.,
°C
wind,
m/s
gust,
m/s
humid.,
%
clouds,
%
prec.,
mm/h
press.,
hPa
HPBL,
m
9 may, sun
sun900:00+13nw4981100 0.7 1008312
03:00+8nnw81486100 0.7 1010513
06:00+7nw61186100 1.4 1011769
09:00+7nnw81175100 1.4 1014970
12:00+9nw91164100 0.0 10161296
15:00+11nnw8115192 0.1 10171746
18:00+11nnw6955100 0.1 10181643
21:00+7nw496881 0.1 1021254
10 may, mon
mon1000:00+5nw39785 0.0 1022226
03:00+4nw512815 0.0 1022338
06:00+5nw41278100 0.0 1022511
09:00+9nnw81359100 0.0 10211565
12:00+11nnw71253100 0.0 10202031
15:00+10nnw71465100 0.3 10191678
18:00+9nw91569100 0.3 10161296
21:00+6nw91791100 5.3 10141151
11 may, tue
tue1100:00+7wnw81492100 5.0 1010783
03:00+8nne3797100 6.7 1007458
06:00+6ne71196100 0.0 1010820
09:00+6ne81190100 0.1 1011844
12:00+8ne81079100 0.1 10111241
15:00+7ne7989100 0.3 1012927
18:00+7ene2492100 0.0 1013345
21:00+7se91394100 0.9 1016959
12 may, wed
wed1200:00+7se81392100 0.6 10171094
03:00+7ese71192100 1.5 1018840
06:00+7ese61289100 0.6 1018763
09:00+9se51180100 0.9 10171217
12:00+13sse81166100 0.8 10171681
15:00+12sse4978100 0.9 1017840
18:00+12ese2284100 0.0 101782
21:00+10e228963 0.0 101612
13 may, thu
thu1300:00+10e229197 0.0 101716
03:00+9e2292100 0.0 101614
06:00+10ene248734 0.0 101690
09:00+17ese5765100 0.0 1016559
12:00+21ese67528 0.0 10161206
15:00+22ese785327 0.0 10151300
18:00+21ese6967100 0.0 1015863
21:00+16e3788100 0.0 1015125